Probability
0 0 0 0 0 0 0 0 0 0 0 0 0 0 0 0 0 0 0 0 0 0 0 0 0 0 0 0 0 0 0 0 0 0 0 0 0 0 0 0 0 0 0 0
0 0 0 0 0 0 0 0 0 0 0 0 0 0 0 0 0 0 0 0 0 0 0 0 0 0 0 0 0 0 0 0 0 0 0 0 0 0 0 0 0 0 0 0
0 0 0 0 0 0 0 0 0 0 0 0 0 0 0 0 0 0 0 0 0 0 0 0 0 0 0 0 0 0 0 0 0 0 0 0 0 0 0 0 0 0 0 0
0 0 0 0 0 0 0 0 0 0 0 0 0 0 0 0 0 0 0 0 0 0 0 0 0 0 0 0 0 0 0 0 0 0 0 0 0 0 0 0 0 0 0 0
0 0 0 0 0 0 0 0 0 0 0 0 0 0 0 0 0 0 0 0 0 0 0 0 0 0 0 0 0 0 0 0 0 0 0 0 0 0 0 0 0 0 0 0
0 0 0 0 0 0 0 0 0 0 0 0 0 0 0 0 0 0 0 0 0 0 0 0 0 0 0 0 0 0 0 0 0 0 0 0 0 0 0 0 0 0 0 0
0 0 0 0 0 0 0 0 0 0 0 0 0 0 0 0 0 0 0 0 0 0 0 0 0 0 0 0 0 0 0 0 0 0 0 0 0 0 0 0 0 0 0 0
0 0 0 0 0 0 0 0 0 0 0 0 0 0 0 0 0 0 0 0 0 0 0 0 0 0 0 0 0 0 0 0 0 0 0 0 0 0 0 0 0 0 0 0
0 0 0 0 0 0 0 0 0 0 0 0 0 0 0 0 0 0 0 0 0 0 0 0 0 0 0 0 0 0 0 0 0 0 0 0 0 0 0 0 0 0 0 0
0 0 0 0 0 0 0 0 0 0 0 0 0 0 0 0 0 0 0 0 0 0 0 0 0 0 0 0 0 0 0 0 0 0 0 0 0 0 0 0 0 0 0 0
0 0 0 0 0 0 0 0 0 0 0 0 0 0 0 0 0 0 0 0 0 0 0 0 0 0 0 0 0 0 0 0 0 0 0 0 0 0 0 0 0 0 0 0
0 0 0 0 0 0 0 0 0 0 0 0 0 0 0 0 0 0 0 0 0 0 0 0 0 0 0 0 0 0 0 0 0 0 0 0 0 0 0 0 0 0 0 0
0 0 0 0 0 0 0 0 0 0 0 0 0 0 0 0 0 0 0 0 0 0 0 0 0 0 0 0 0 0 0 0 0 0 0 0 0 0 0 0 0 0 0 0
0 0 0 0 0 0 0 0 0 0 0 0 0 0 0 0 0 0 0 0 0 0 0 0 0 0 0 0 0 0 0 0 0 0 0 0 0 0 0 0 0 0 0 0
0 0 0 0 0 0 0 0 0 0 0 0 0 0 0 0 0 0 0 0 0 0 0 0 0 0 0 0 0 0 0 0 0 0 0 0 0 0 0 0 0 0 0 0
0 0 0 0 0 0 0 0 0 0 0 0 0 0 0 0 0 0 0 0 0 0 0 0 0 0 0 0 0 0 0 0 0 0 0 0 0 0 0 0 0 0 0 0
0 0 0 0 0 0 0 0 0 0 0 0 0 0 0 0 0 0 0 0 0 0 0 0 0 0 0 0 0 0 0 0 0 0 0 0 0 0 0 0 0 0 0 0
0 0 0 0 0 0 0 0 0 0 0 0 0 0 0 0 0 0 0 0 0 0 0 0 0 0 0 0 0 0 0 0 0 0 0 0 0 0 0 0 0 0 0 0
0 0 0 0 0 0 0 0 0 0 0 0 0 0 0 0 0 0 0 0 0 0 0 0 0 0 0 0 0 0 0 0 0 0 0 0 0 0 0 0 0 0 0 0
0 0 0 0 0 0 0 0 0 0 0 0 0 0 0 0 0 0 0 0 0 0 0 0 0 0 0 0 0 0 0 0 0 0 0 0 0 0 0 0 0 0 0 0
0 0 0 0 0 0 0 0 0 0 0 0 0 0 0 0 0 0 0 0 0 0 0 0 0 0 0 0 0 0 0 0 0 0 0 0 0 0 0 0 0 0 0 0
0 0 0 0 0 0 0 0 0 0 0 0 0 0 0 0 0 0 0 0 0 0 0 0 0 0 0 0 0 0 0 0 0 0 0 0 0 0 0 0 0 0 0 0
0 0 0 0 0 0 0 0 0 0 0 0 0 0 0 0 0 0 0 0 0 0 0 0 0 0 0 0 0 0 0 0 0 0 0 0 0 0 0 0 0 0 0 0
0 0 0 0 0 0 0 0 0 0 0 0 0 0 0 0 0 0 0 0 0 0 0 0 0 0 0 0 0 0 0 0 0 0 0 0 0 0 0 0 0 0 0 0
0 0 0 0 0 0 0 0 0 0 0 0 0 0 0 0 0 0 0 0 0 0 0 0 0 0 0 0 0 0 0 0 0 0 0 0 0 0 0 0 0 0 0 0
0 0 0 0 0 0 0 0 0 0 0 0 0 0 0 0 0 0 0 0 0 0 0 0 0 0 0 0 0 0 0 0 0 0 0 0 0 0 0 0 0 0 0 0
0 0 0 0 0 0 0 0 0 0 0 0 0 0 0 0 0 0 0 0 0 0 0 0 0 0 0 0 0 0 0 0 0 0 0 0 0 0 0 0 0 0 0 0
Wind_Speed
6 2 4 8 10 13 16 15 14 14 14 11 8 8 6 6 6 5 3 1 2 4 5 6 7 8 9 11 11 12 13 13 14 15 15 15 15 16 16 16 16 17 17 17
4 2 5 9 15 16 17 18 19 19 17 6 1 4 5 6 6 5 3 2 4 5 7 8 9 10 11 12 12 13 14 14 15 15 15 15 16 16 17 17 17 17 17 17
5 1 4 12 12 14 11 11 11 13 8 5 5 6 5 5 5 4 3 3 5 6 7 8 10 11 12 13 13 13 14 15 15 15 16 16 16 17 17 18 17 17 17 17
3 3 10 4 2 3 8 8 9 6 3 5 4 3 2 4 4 3 3 5 6 7 8 9 10 11 12 13 14 14 15 15 15 15 16 17 17 18 18 17 16 16 17 17
4 6 10 6 3 5 6 6 7 9 7 5 3 2 4 4 2 3 4 5 6 8 9 11 11 12 13 14 14 15 15 16 16 16 17 18 18 18 17 17 17 16 16 17
5 6 9 2 4 3 3 6 6 8 8 7 5 4 2 4 2 4 5 5 7 8 10 11 12 13 14 15 16 16 16 16 17 17 17 18 18 18 17 16 16 16 16 17
10 9 10 1 5 6 6 1 6 7 8 7 6 2 1 1 3 4 6 7 8 9 10 12 13 13 15 16 16 16 16 17 17 17 17 18 18 17 17 16 16 17 17 16
8 9 9 6 8 7 1 4 5 6 6 5 3 1 1 3 4 5 7 8 9 10 12 12 13 14 16 17 17 17 17 17 18 18 16 14 17 17 16 16 16 16 15 15
9 5 3 4 3 1 3 4 4 5 4 4 3 3 3 4 6 7 8 9 10 12 13 13 14 14 17 17 17 17 17 18 18 18 16 16 16 17 15 14 12 12 12 13
6 6 4 4 3 3 3 3 4 4 4 4 3 4 5 6 7 8 9 10 11 13 14 15 15 15 16 17 17 17 18 18 17 16 16 16 13 12 12 12 12 12 13 13
7 3 3 5 5 5 4 4 4 4 3 3 3 4 6 7 8 9 10 11 11 12 14 16 16 17 16 16 16 17 18 17 16 15 15 14 14 12 14 13 14 15 13 12
6 5 5 4 5 6 6 5 5 4 2 2 4 5 6 8 9 10 11 12 12 14 15 17 17 17 17 16 16 16 15 15 13 12 13 13 13 14 16 18 22 24 23 20
1 2 2 3 4 5 5 4 4 3 3 4 4 5 7 9 9 11 12 13 14 15 16 17 17 17 17 16 15 16 16 15 13 12 13 13 13 14 15 15 18 20 21 22
3 4 4 4 4 4 4 3 2 2 3 4 5 7 8 9 11 12 13 14 15 16 16 17 17 17 16 15 15 16 16 15 14 12 12 12 13 13 13 14 15 13 14 19
4 3 3 4 4 4 3 2 2 3 5 6 7 8 9 11 13 14 14 14 15 16 16 16 17 17 16 15 15 16 15 12 12 12 12 13 13 13 13 14 13 13 13 13
5 4 5 5 4 3 2 2 4 6 6 8 9 10 11 12 13 14 14 14 15 16 16 16 17 16 15 15 15 14 13 17 17 13 12 12 12 12 12 13 13 12 12 12
6 5 4 4 3 3 3 4 5 7 8 9 11 12 12 13 14 15 15 14 15 15 16 16 16 15 15 15 14 12 12 13 18 14 12 12 12 12 12 12 12 12 12 14
4 4 4 3 3 3 5 6 6 8 9 10 11 12 13 14 15 15 15 15 16 16 15 15 14 15 15 15 13 11 12 12 12 12 12 12 12 12 12 12 13 14 13 13
2 2 2 2 3 4 5 7 8 9 10 10 11 13 13 14 14 15 15 15 16 16 14 13 18 16 15 15 15 11 12 13 13 12 12 15 14 12 12 12 12 13 13 12
1 1 2 3 4 5 6 8 9 9 10 10 11 13 14 14 14 14 15 14 13 12 14 16 16 14 14 14 16 12 12 13 13 13 12 12 12 13 12 12 13 13 13 12
1 2 3 5 6 7 8 9 9 10 11 11 12 13 14 14 14 13 13 14 13 13 14 18 13 12 12 14 17 12 12 12 12 12 12 12 12 13 13 13 13 12 12 12
3 4 6 6 7 9 9 8 9 11 11 11 12 12 13 14 14 13 13 12 13 15 13 11 11 14 17 20 12 11 12 12 12 11 11 12 12 12 13 13 13 12 12 12
5 6 7 8 8 9 10 10 10 10 11 12 12 13 13 13 11 12 13 11 11 16 14 12 16 22 25 16 11 11 12 12 12 12 12 12 12 12 12 14 13 12 12 12
6 7 8 8 8 9 11 11 10 9 11 12 12 12 12 11 11 10 11 15 18 20 14 16 22 24 23 11 11 11 11 12 12 12 12 12 12 12 12 12 12 12 12 14
7 7 8 8 8 8 10 10 11 11 11 10 12 12 10 9 11 11 12 14 18 18 13 16 21 22 15 11 11 11 11 11 12 13 12 12 12 12 12 12 12 12 12 12
7 7 7 8 8 8 8 8 9 9 10 11 11 10 10 9 11 11 11 13 16 18 14 11 12 14 11 11 12 12 12 12 13 11 12 12 13 13 12 12 15 12 12 12
7 7 7 7 7 7 7 8 9 10 10 11 12 11 11 11 11 11 13 12 12 12 11 11 11 11 11 11 12 12 11 11 11 11 11 11 11 11 12 14 12 11 11 11
Wind_Direction
262 257 217 235 227 209 219 236 251 262 265 265 236 217 205 189 181 184 191 237 311 319 321 319 319 318 319 316 315 314 310 307 306 306 305 303 302 301 300 298 296 294 292 290
241 225 241 257 250 238 238 246 252 264 271 288 193 191 191 188 186 200 222 270 302 309 312 314 316 317 315 313 314 311 307 306 306 305 304 303 302 302 301 299 296 295 293 292
246 184 271 257 249 230 222 226 236 248 256 159 171 182 193 193 194 213 250 284 296 304 308 311 313 313 311 311 310 308 305 304 304 304 303 303 303 301 300 299 298 296 295 294
239 213 241 252 81 207 217 233 226 231 192 177 177 174 210 203 205 229 271 287 297 304 306 307 309 308 307 306 305 304 303 303 305 305 304 304 303 302 301 301 299 297 296 295
208 244 266 264 192 185 207 244 210 207 190 162 136 190 205 187 216 272 290 295 300 303 304 305 306 308 307 304 304 303 303 305 307 306 305 304 303 303 303 301 299 297 297 297
202 230 251 247 126 158 203 244 182 186 178 167 172 233 210 161 241 286 295 297 301 304 304 303 307 310 306 304 304 305 307 306 305 304 303 302 302 302 301 300 298 298 296 296
220 237 263 134 138 167 219 301 147 174 174 178 203 257 50 202 281 291 295 299 303 304 303 304 309 309 303 303 304 308 308 305 303 302 301 301 301 300 301 299 298 297 297 295
200 217 243 141 160 204 252 98 152 169 175 189 205 212 245 272 285 291 296 301 305 304 304 306 308 307 304 305 308 309 307 304 303 302 302 300 299 300 300 299 299 299 299 299
204 217 57 154 191 110 120 156 165 173 178 184 203 234 259 277 286 292 296 300 302 303 304 305 307 308 305 307 309 308 305 303 303 303 301 300 300 300 300 299 297 298 297 297
233 240 211 199 192 176 170 165 158 164 168 186 221 247 267 281 288 293 297 301 304 305 303 305 309 307 304 306 308 306 304 304 304 303 302 301 299 297 296 296 296 296 296 296
234 232 204 208 201 181 162 152 149 152 174 202 232 260 278 287 292 296 299 301 303 301 301 302 306 306 306 307 308 305 303 303 303 302 301 301 299 296 295 290 290 294 294 295
226 191 197 188 177 173 169 170 169 170 194 230 254 272 284 288 293 297 299 301 300 299 300 302 306 306 307 309 307 304 303 303 302 302 300 300 300 298 291 288 294 295 291 292
158 122 144 130 148 163 172 172 180 200 225 255 271 280 286 290 294 296 297 298 299 301 302 303 305 304 306 308 306 302 300 300 300 299 299 300 300 300 302 301 298 296 295 296
153 141 146 155 158 162 163 165 184 233 257 269 281 287 289 291 294 295 297 300 302 302 301 302 303 303 307 309 306 302 300 298 297 296 297 297 298 298 299 302 305 303 300 298
161 167 150 143 143 147 148 164 226 264 279 286 289 290 292 294 295 296 299 301 301 299 300 303 303 304 309 309 305 302 300 297 297 296 296 295 296 297 297 298 298 300 301 301
136 127 136 149 159 169 194 232 261 277 287 292 294 295 295 294 293 294 297 300 301 300 302 302 301 304 308 307 304 301 298 298 300 298 296 296 297 298 298 298 298 298 300 303
149 156 167 181 194 224 251 265 273 282 289 290 294 298 297 296 295 296 300 302 300 296 297 297 298 303 304 302 302 300 299 299 300 298 295 297 298 299 299 298 298 298 297 299
175 177 187 198 222 255 274 281 284 287 288 292 296 296 295 296 298 300 303 303 301 297 296 298 301 304 302 302 302 299 297 295 297 298 298 298 299 299 298 298 298 298 298 300
147 161 193 232 254 266 276 283 287 288 290 292 293 294 294 294 295 297 300 300 298 297 300 305 306 304 301 302 303 297 295 296 297 298 298 299 301 299 298 297 298 299 299 298
136 214 260 276 278 273 277 282 287 289 290 293 293 292 293 295 298 299 298 293 289 291 298 302 304 301 300 301 302 297 296 298 299 300 301 299 299 300 299 298 298 299 299 297
260 275 279 281 286 285 284 287 288 289 292 292 289 290 292 295 296 296 294 293 295 300 303 303 302 300 302 303 304 299 298 299 300 300 300 300 300 300 300 299 299 299 298 296
275 280 285 288 290 291 292 291 287 287 289 289 288 288 290 293 295 293 286 286 294 302 304 300 300 300 304 306 302 300 300 300 299 298 298 298 298 299 299 300 300 299 297 296
282 284 286 288 289 291 292 289 285 285 285 287 289 290 290 292 293 292 294 296 300 303 304 297 300 304 308 308 301 300 299 298 299 299 298 298 297 297 298 299 299 299 297 297
285 286 287 290 290 286 285 287 288 285 284 285 282 282 285 289 288 285 288 296 301 303 300 299 304 307 310 306 301 300 298 298 298 298 298 298 299 298 298 298 298 298 297 297
285 285 284 285 284 282 284 289 291 288 287 286 287 287 284 281 286 293 296 298 301 303 301 302 305 308 308 302 300 299 298 296 296 299 299 300 300 299 298 298 298 298 297 296
283 283 282 279 278 282 285 287 288 291 293 293 294 295 295 293 292 295 297 299 300 301 302 300 302 305 302 301 300 299 298 299 300 299 297 298 298 298 297 298 299 297 296 296
282 281 280 282 280 279 281 284 287 290 293 294 296 298 299 298 297 299 300 299 300 301 301 301 302 302 301 301 300 299 298 298 298 298 298 298 298 298 298 298 298 297 296 295